OneWeb SL0708

operational
NORAD ID: 61613 Int'l Des: 2024-188 Owner: ONEWEBE Country: UK Constellation: oneweb
LEOCIRCULARPOLARONEWEB_TYPE

About OneWeb SL0708

Description loading...

Live Position

Loading 3D Globe...

Upcoming Passes

Altitude History

Altitude vs Time

uPlot chart will show altitude changes over time

Two-Line Element Set

1 61613U 24188V 25298.89593364 .00000045 00000-0 92003-4 0 9990
2 61613 87.8772 82.9886 0001566 75.9574 284.1727 13.10371520 52612
Epoch: Oct 25, 2025 • Age: 8 hours

Current Status

Altitude 1241.8 km
Velocity 7.23 km/s
Sub-Earth Point -48.93°S, 140.53°E
Launch Date Oct 20, 2024
Age 1 years
Type internet

Technical Details

Classification Payload
Mass 148.00 kg
Dry Mass 140.00 kg
Total Mass 148.00 kg
Length 1.30 m
Diameter 1.00 m
Span 5.00 m
Shape Trapezoid+2 pan
Manufacturer ONEWUS
Bus Type ARROW
Phase Status In Orbit
Owner/State ONEWEBE/UK

Large Constellations

Loading constellations...